Amargosa Valley, NV

10:11 AM PST on February 27, 2017 (GMT -0800)
Mercury

Weather History for KDRA - September, 2013

Change the Weather History Date:

Friday, September 20, 2013

  Actual Average Record
Temperature  
Mean Temperature 76 °F 74 °F  
Max Temperature 91 °F 88 °F 98 °F (2000)
Min Temperature 62 °F 59 °F 43 °F (2004)
Degree Days  
Heating Degree Days 0    
Cooling Degree Days 12    
Growing Degree Days 26 (Base 50)    
Moisture  
Dew Point 25 °F    
Average Humidity 15    
Maximum Humidity 26    
Minimum Humidity 4    
Precipitation  
Precipitation 0.00 in 0.03 in 0.38 in (2005)
Month to date precipitation 0.40  
Year to date precipitation 4.37  
Sea Level Pressure  
Sea Level Pressure 29.73 in    
Wind  
Wind Speed 7 mph (SE)    
Max Wind Speed 20 mph    
Max Gust Speed 28 mph    
Visibility 10 miles    
Events      
T = Trace of Precipitation, MM = Missing Value Source: NWS Daily Summary

Daily Weather History Graph

Daily Weather History Graph

Search for Another Location

Airport or City:

Trip Planner

Search our weather history database for the weather conditions in past years. The results will help you decide how hot, cold, wet, or windy it might be!

Date:

Astronomy

Sep. 20, 2013 Rise Set
Actual Time 6:30 AM PDT 6:43 PM PDT
Civil Twilight 6:04 AM PDT 7:09 PM PDT
Nautical Twilight 5:34 AM PDT 7:39 PM PDT
Astronomical Twilight 5:03 AM PDT 8:09 PM PDT
Moon 7:23 PM PDT (9/20) 7:46 AM PDT (9/20)
Length of Visible Light 13h 04m
Length of Day
12h 12m
Full, 98% of the Moon is Illuminated
Sep 20
Full
Sep 26
Last Quarter
Oct 4
New
Oct 11
First Quarter
Oct 18
Full

Hourly Weather History & Observations

Time (PDT) Temp. Dew Point Humidity Pressure Visibility Wind Dir Wind Speed Gust Speed Precip Events Conditions
12:52 AM 69.1 °F 26.1 °F 20% 29.77 in 10.0 mi East 4.6 mph - N/A   Clear
1:52 AM 66.0 °F 26.1 °F 22% 29.78 in 10.0 mi East 4.6 mph - N/A   Clear
2:52 AM 63.0 °F 27.0 °F 26% 29.77 in 10.0 mi East 5.8 mph - N/A   Clear
3:52 AM 66.0 °F 26.1 °F 22% 29.77 in 10.0 mi NE 4.6 mph - N/A   Clear
4:52 AM 64.0 °F 27.0 °F 25% 29.77 in 10.0 mi East 3.5 mph - N/A   Clear
5:52 AM 64.0 °F 27.0 °F 25% 29.78 in 10.0 mi ENE 4.6 mph - N/A   Clear
6:52 AM 64.9 °F 27.0 °F 24% 29.79 in 10.0 mi East 6.9 mph - N/A   Clear
7:52 AM 70.0 °F 28.9 °F 22% 29.80 in 10.0 mi Calm Calm - N/A   Clear
8:52 AM 77.0 °F 28.0 °F 17% 29.80 in 10.0 mi ENE 4.6 mph - N/A   Clear
9:52 AM 81.0 °F 28.0 °F 14% 29.79 in 10.0 mi Variable 3.5 mph - N/A   Clear
10:52 AM 84.0 °F 27.0 °F 13% 29.78 in 10.0 mi ESE 8.1 mph - N/A   Clear
11:52 AM 87.1 °F 27.0 °F 11% 29.75 in 10.0 mi SSW 12.7 mph 19.6 mph N/A   Clear
12:52 PM 90.0 °F 23.0 °F 9% 29.73 in 10.0 mi SSW 13.8 mph 25.3 mph N/A   Clear
1:52 PM 90.0 °F 25.0 °F 10% 29.71 in 10.0 mi SW 11.5 mph 23.0 mph N/A   Clear
2:52 PM 90.0 °F 24.1 °F 9% 29.69 in 10.0 mi South 13.8 mph 23.0 mph N/A   Clear
3:52 PM 91.0 °F 21.9 °F 8% 29.67 in 10.0 mi SSW 16.1 mph 26.5 mph N/A   Clear
4:52 PM 91.0 °F 17.1 °F 7% 29.66 in 10.0 mi SW 19.6 mph 27.6 mph N/A   Clear
5:52 PM 88.0 °F 21.0 °F 9% 29.66 in 10.0 mi SSW 13.8 mph 20.7 mph N/A   Clear
6:52 PM 84.9 °F 19.9 °F 9% 29.66 in 10.0 mi South 9.2 mph - N/A   Clear
7:52 PM 82.9 °F 21.0 °F 10% 29.66 in 10.0 mi SSE 9.2 mph - N/A   Clear
8:52 PM 80.1 °F 24.1 °F 13% 29.66 in 10.0 mi SSE 8.1 mph - N/A   Clear
9:52 PM 77.0 °F 26.1 °F 15% 29.66 in 10.0 mi SSE 3.5 mph - N/A   Clear
10:52 PM 79.0 °F 28.0 °F 15% 29.67 in 10.0 mi South 10.4 mph - N/A   Clear
11:52 PM 75.0 °F 30.0 °F 19% 29.68 in 10.0 mi SSE 8.1 mph - N/A   Clear